Tiempo cada hora Allmend

Hoy, 2 Agosto, Lunes

Tiempo Temperatura Precipitaciones Viento Presión Humedad
00:00 +10°C° 0 mm 1 mps 689 mmHg 94%
01:00 +10°C° 0 mm 1 mps 689 mmHg 94%
02:00 +9°C° 0 mm 1 mps 689 mmHg 94%
03:00 +9°C° 0 mm 1 mps 689 mmHg 94%
04:00 +9°C° 0 mm 1 mps 689 mmHg 94%
05:00 +10°C° 0 mm 1 mps 689 mmHg 92%
06:00 +10°C° 0 mm 0 mps 689 mmHg 91%
07:00 +11°C° 0 mm 0 mps 690 mmHg 90%
08:00 +12°C° 0.1 mm 0 mps 690 mmHg 84%
09:00 +15°C° 0.1 mm 1 mps 690 mmHg 77%
10:00 +16°C° 0.1 mm 1 mps 691 mmHg 71%
11:00 +18°C° 0.3 mm 1 mps 691 mmHg 68%
12:00 +19°C° 0.3 mm 1 mps 690 mmHg 65%
13:00 +20°C° 0.3 mm 1 mps 690 mmHg 62%
14:00 +19°C° 0.5 mm 1 mps 690 mmHg 66%
15:00 +19°C° 0.5 mm 1 mps 690 mmHg 69%
16:00 +19°C° 0.5 mm 1 mps 690 mmHg 72%
17:00 +18°C° 0.4 mm 1 mps 690 mmHg 78%
18:00 +16°C° 0.4 mm 1 mps 690 mmHg 83%
19:00 +15°C° 0.4 mm 1 mps 690 mmHg 88%
20:00 +14°C° 0.1 mm 1 mps 691 mmHg 90%
21:00 +13°C° 0.1 mm 1 mps 691 mmHg 91%
22:00 +12°C° 0.1 mm 1 mps 691 mmHg 93%
23:00 +11°C° 0 mm 1 mps 691 mmHg 92%

Mañana, 3 Agosto, Martes

Tiempo Temperatura Precipitaciones Viento Presión Humedad
00:00 +11°C° 0 mm 1 mps 690 mmHg 92%
01:00 +11°C° 0 mm 1 mps 690 mmHg 92%
02:00 +11°C° 0 mm 1 mps 690 mmHg 92%
03:00 +10°C° 0 mm 1 mps 690 mmHg 92%
04:00 +10°C° 0 mm 1 mps 689 mmHg 91%
05:00 +11°C° 0 mm 1 mps 689 mmHg 90%
06:00 +12°C° 0 mm 1 mps 690 mmHg 89%
07:00 +13°C° 0 mm 1 mps 690 mmHg 88%
08:00 +15°C° 0.1 mm 1 mps 690 mmHg 81%
09:00 +18°C° 0.1 mm 1 mps 690 mmHg 73%
10:00 +19°C° 0.1 mm 1 mps 690 mmHg 66%
11:00 +18°C° 0.6 mm 2 mps 690 mmHg 68%
12:00 +18°C° 0.6 mm 2 mps 690 mmHg 71%
13:00 +18°C° 0.6 mm 3 mps 690 mmHg 73%
14:00 +18°C° 0.6 mm 3 mps 690 mmHg 75%
15:00 +17°C° 0.6 mm 2 mps 690 mmHg 77%
16:00 +17°C° 0.6 mm 2 mps 690 mmHg 79%
17:00 +16°C° 0.5 mm 2 mps 690 mmHg 83%
18:00 +16°C° 0.5 mm 1 mps 690 mmHg 87%
19:00 +15°C° 0.5 mm 1 mps 690 mmHg 91%
20:00 +14°C° 0.2 mm 1 mps 690 mmHg 92%
21:00 +14°C° 0.2 mm 1 mps 690 mmHg 93%
22:00 +13°C° 0.2 mm 1 mps 690 mmHg 94%
23:00 +13°C° 0.1 mm 1 mps 690 mmHg 94%

Pasado mañana, 4 Agosto, Miércoles

Tiempo Temperatura Precipitaciones Viento Presión Humedad
00:00 +13°C° 0.1 mm 1 mps 690 mmHg 94%
01:00 +13°C° 0.1 mm 1 mps 689 mmHg 93%
02:00 +12°C° 0 mm 0 mps 689 mmHg 93%
03:00 +12°C° 0 mm 0 mps 689 mmHg 94%
04:00 +12°C° 0 mm 0 mps 688 mmHg 94%
05:00 +12°C° 0.3 mm 0 mps 689 mmHg 95%
06:00 +12°C° 0.3 mm 0 mps 689 mmHg 95%
07:00 +12°C° 0.3 mm 0 mps 689 mmHg 96%
08:00 +12°C° 0.5 mm 0 mps 689 mmHg 96%
09:00 +13°C° 0.5 mm 0 mps 689 mmHg 95%
10:00 +13°C° 0.5 mm 0 mps 689 mmHg 95%
11:00 +13°C° 0.3 mm 0 mps 689 mmHg 95%
12:00 +13°C° 0.3 mm 0 mps 689 mmHg 96%
13:00 +13°C° 0.3 mm 0 mps 690 mmHg 96%
14:00 +13°C° 0.1 mm 0 mps 690 mmHg 95%
15:00 +13°C° 0.1 mm 0 mps 690 mmHg 94%
16:00 +14°C° 0.1 mm 0 mps 690 mmHg 93%
17:00 +14°C° 0 mm 0 mps 690 mmHg 93%
18:00 +14°C° 0 mm 0 mps 690 mmHg 93%
19:00 +14°C° 0 mm 0 mps 689 mmHg 93%
20:00 +13°C° 0 mm 0 mps 689 mmHg 94%
21:00 +12°C° 0 mm 0 mps 689 mmHg 94%
22:00 +12°C° 0 mm 1 mps 689 mmHg 95%
23:00 +12°C° 0 mm 1 mps 689 mmHg 95%

5 Agosto, Jueves

Tiempo Temperatura Precipitaciones Viento Presión Humedad
00:00 +12°C° 0 mm 1 mps 689 mmHg 94%
01:00 +12°C° 0 mm 1 mps 689 mmHg 94%
02:00 +11°C° 0 mm 1 mps 688 mmHg 94%
03:00 +11°C° 0 mm 1 mps 688 mmHg 94%
04:00 +11°C° 0 mm 1 mps 688 mmHg 94%
05:00 +12°C° 0 mm 1 mps 688 mmHg 93%
06:00 +12°C° 0 mm 1 mps 688 mmHg 92%
07:00 +12°C° 0 mm 0 mps 689 mmHg 90%
08:00 +14°C° 0.1 mm 1 mps 689 mmHg 86%
09:00 +16°C° 0.1 mm 1 mps 689 mmHg 82%
10:00 +18°C° 0.1 mm 1 mps 689 mmHg 77%
11:00 +17°C° 0.5 mm 2 mps 689 mmHg 77%
12:00 +18°C° 0.5 mm 2 mps 688 mmHg 77%
13:00 +18°C° 0.5 mm 2 mps 688 mmHg 76%
14:00 +18°C° 0.6 mm 2 mps 688 mmHg 78%
15:00 +18°C° 0.6 mm 2 mps 688 mmHg 80%
16:00 +18°C° 0.6 mm 2 mps 688 mmHg 81%
17:00 +17°C° 0.3 mm 2 mps 688 mmHg 84%
18:00 +16°C° 0.3 mm 1 mps 688 mmHg 87%
19:00 +15°C° 0.3 mm 0 mps 688 mmHg 89%
20:00 +15°C° 0 mm 1 mps 688 mmHg 90%
21:00 +14°C° 0 mm 1 mps 688 mmHg 92%
22:00 +13°C° 0 mm 1 mps 688 mmHg 93%
23:00 +13°C° 0 mm 1 mps 688 mmHg 93%

6 Agosto, Viernes

Tiempo Temperatura Precipitaciones Viento Presión Humedad
00:00 +13°C° 0 mm 1 mps 688 mmHg 92%
01:00 +12°C° 0 mm 1 mps 687 mmHg 92%
02:00 +12°C° 0 mm 1 mps 687 mmHg 92%
03:00 +12°C° 0 mm 1 mps 687 mmHg 92%
04:00 +12°C° 0 mm 1 mps 687 mmHg 92%
05:00 +13°C° 0 mm 1 mps 687 mmHg 90%
06:00 +14°C° 0 mm 1 mps 687 mmHg 89%
07:00 +13°C° 0 mm 0 mps 688 mmHg 87%
08:00 +16°C° 0 mm 1 mps 688 mmHg 81%
09:00 +18°C° 0 mm 1 mps 688 mmHg 76%
10:00 +19°C° 0 mm 1 mps 688 mmHg 70%
11:00 +19°C° 0 mm 2 mps 688 mmHg 70%
12:00 +19°C° 0 mm 2 mps 688 mmHg 69%
13:00 +19°C° 0 mm 2 mps 688 mmHg 69%
14:00 +20°C° 0.1 mm 2 mps 688 mmHg 69%
15:00 +21°C° 0.1 mm 1 mps 688 mmHg 69%
16:00 +21°C° 0.1 mm 1 mps 688 mmHg 69%
17:00 +20°C° 0 mm 1 mps 688 mmHg 74%
18:00 +19°C° 0 mm 1 mps 688 mmHg 80%
19:00 +18°C° 0 mm 1 mps 687 mmHg 86%
20:00 +16°C° 0 mm 1 mps 687 mmHg 88%
21:00 +15°C° 0 mm 1 mps 687 mmHg 91%
22:00 +14°C° 0 mm 1 mps 687 mmHg 94%
23:00 +13°C° 0 mm 1 mps 687 mmHg 93%

7 Agosto, Sábado

Tiempo Temperatura Precipitaciones Viento Presión Humedad
00:00 +13°C° 0 mm 1 mps 687 mmHg 93%
01:00 +13°C° 0 mm 1 mps 686 mmHg 92%
02:00 +13°C° 0 mm 1 mps 686 mmHg 92%
03:00 +13°C° 0 mm 1 mps 686 mmHg 91%
04:00 +13°C° 0 mm 1 mps 686 mmHg 90%
05:00 +14°C° 0 mm 1 mps 686 mmHg 89%
06:00 +14°C° 0 mm 1 mps 686 mmHg 87%
07:00 +15°C° 0 mm 1 mps 686 mmHg 86%
08:00 +16°C° 0.1 mm 1 mps 686 mmHg 85%
09:00 +18°C° 0.1 mm 1 mps 686 mmHg 83%
10:00 +18°C° 0.1 mm 1 mps 686 mmHg 82%
11:00 +19°C° 0.2 mm 1 mps 686 mmHg 82%
12:00 +18°C° 0.2 mm 2 mps 686 mmHg 82%
13:00 +19°C° 0.2 mm 2 mps 686 mmHg 82%
14:00 +17°C° 2.5 mm 2 mps 686 mmHg 87%
15:00 +16°C° 2.5 mm 2 mps 686 mmHg 92%
16:00 +15°C° 2.5 mm 2 mps 687 mmHg 98%
17:00 +14°C° 3.9 mm 2 mps 687 mmHg 97%
18:00 +14°C° 3.9 mm 2 mps 688 mmHg 97%
19:00 +13°C° 3.9 mm 2 mps 688 mmHg 97%
20:00 +12°C° 2.3 mm 2 mps 689 mmHg 96%
21:00 +12°C° 2.3 mm 2 mps 689 mmHg 96%
22:00 +12°C° 2.3 mm 2 mps 689 mmHg 96%
23:00 +10°C° 0 mm 2 mps 689 mmHg 94%
Mostrar más

Necesitamos Su Consentimiento

Meteoprog y nuestros Proveedores de Servicios pueden almacenar y acceder a sus datos personales como cookies, identificadores de dispositivo u otras tecnologías similares de su dispositivo y procesar dichos datos para personalizar contenido y anuncios, además de ofrecer funciones de redes sociales y analizar el tráfico.

  • Almacenar y/o acceder a información en su dispositivo

    Se puede almacenar o acceder a cookies, identificadores de dispositivo u otra información de su dispositivo para los fines anteriormente indicados.

  • Anuncios y contenido personalizados, medición de anuncios y contenido, percepciones del público, y desarrollo de productos

    Los anuncios y el contenido pueden personalizarse en base a su perfil. Se pueden añadir más datos para personalizar mejor los anuncios y contenidos. Se puede medir el rendimiento de los anuncios y contenidos. Se puede obtener la percepción sobre el público que ha visto los anuncios y contenidos. Dichos datos pueden usarse para desarrollar o mejorar la experiencia del usuario, sistemas y software.

Al hacer clic en ‘Estoy De Acuerdo’ usted permitirá el uso de las cookies, identificadores de dispositivo, balizas web u otras tecnologías similares indicadas. Su configuración puede cambiarse desde el navegador de su dispositivo.

Para ciertos fines, los intereses legítimos pueden ser considerados por encima del consentimiento. Puede leer más sobre ello en nuestra Política de Privacidad y Cookies.